Social login voor leden:
METAR EBOS 240650Z 21004KT 9999 FEW019 06/05 Q1008 TEMPO 4000 SHRA BR BKN010
TAF EBOS 240510Z 2406/2512 30005KT 6000 SCT010 BKN018 TEMPO 2406/2410 4000 RA SHRA SCT006 BKN010 PROB30 TEMPO 2500/2504 4000 SHRA SCT010 BKN014TCU BECMG 2503/2506 33012KT

NZVC is de eerste Belgische vliegclub met een erkenning als 'Approved Training Organisation (ATO)'

Sinds 3 maart 2015 is de Noordzee Vliegclub Oostende erkend door de Europese Unie en de Belgian Civil Aviation Authority als Approved Training Organisation (ATO). Hierbij zijn we de eerste vliegclub in België die voldoet aan de nieuwste en strengste Europese normen inzake organisatie, kwaliteit en veiligheid bij de opleiding tot Privaat Piloot (PPL).

 

Opleiding Piloot
Meevliegen
Visit Us
Agenda
Opleiding Piloot
Doopvluchten
Visit Us
Volgende activiteit
Noordzee Vliegclub - Nieuwpoortsesteenweg 947 8400 Oostende - Tel 059 30 04 79 - Dit e-mailadres wordt beveiligd tegen spambots. JavaScript dient ingeschakeld te zijn om het te bekijken.

 - Copyright 2017 ©